Change the Weather History Date:

Tuesday, September 10, 2013

  Actual Average (KMRH) Record (KMRH)
Temperature  
Mean Temperature 81 °F -  
Max Temperature 84 °F 85 °F 90 °F (1960)
Min Temperature 78 °F 66 °F 55 °F (1956)
Cooling Degree Days 16    
Growing Degree Days 31 (Base 50)    
Moisture  
Dew Point 71 °F    
Average Humidity 71    
Maximum Humidity 82    
Minimum Humidity 55    
Precipitation  
Precipitation 0.00 in - - ()
Sea Level Pressure  
Sea Level Pressure 30.21 in    
Wind  
Wind Speed 6 mph (East)    
Max Wind Speed 10 mph    
Max Gust Speed -    
Visibility 10 miles    
Events      
Averages and records for this station are not official NWS values.
T = Trace of Precipitation, MM = Missing Value Source: NWS Daily Summary

Daily Weather History Graph

Daily Weather History Graph

Search for Another Location

Airport or City:

Trip Planner

Search our weather history database for the weather conditions in past years. The results will help you decide how hot, cold, wet, or windy it might be!

Date:

Astronomy

Sep. 10, 2013 Rise Set
Actual Time 6:45 AM EDT 7:19 PM EDT
Civil Twilight 6:19 AM EDT 7:45 PM EDT
Nautical Twilight 5:49 AM EDT 8:15 PM EDT
Astronomical Twilight 5:19 AM EDT 8:45 PM EDT
Moon 11:54 AM EDT (9/10) 10:34 PM EDT (9/10)
Length of Visible Light 13h 25m
Length of Day
12h 34m
Waxing Crescent, 28% of the Moon is Illuminated
Sep 10
Waxing Crescent
Sep 12
First Quarter
Sep 19
Full
Sep 26
Last Quarter
Oct 4
New

Hourly Weather History & Observations

Time (EDT) Temp. Heat Index Dew Point Humidity Pressure Visibility Wind Dir Wind Speed Gust Speed Precip Events Conditions
12:56 AM 79.0 °F - 70.0 °F 74% 30.17 in 10.0 mi North - - N/A   Clear
1:56 AM 79.0 °F - 70.0 °F 74% 30.17 in 10.0 mi North - - N/A   Clear
2:56 AM 79.0 °F - 71.1 °F 77% 30.17 in 10.0 mi North - - N/A   Clear
3:56 AM 78.1 °F - 71.1 °F 79% 30.17 in 10.0 mi North - - N/A   Clear
4:56 AM 78.1 °F - 71.1 °F 79% 30.18 in 10.0 mi North - - N/A   Clear
5:56 AM 78.1 °F - 71.1 °F 79% 30.19 in 10.0 mi NE 3.5 mph - 0.00 in   Clear
6:56 AM 78.1 °F - 71.1 °F 79% 30.20 in 10.0 mi NE 4.6 mph - N/A   Clear
7:56 AM 80.1 °F 83.8 °F 72.0 °F 76% 30.22 in 10.0 mi NNE 4.6 mph - N/A   Clear
8:56 AM 82.0 °F 86.3 °F 71.1 °F 69% 30.23 in 10.0 mi NE 4.6 mph - N/A   Clear
9:56 AM 82.9 °F 87.5 °F 71.1 °F 67% 30.25 in 10.0 mi NE 8.1 mph - N/A   Clear
10:56 AM 82.9 °F 87.0 °F 70.0 °F 65% 30.25 in 10.0 mi NE 10.4 mph - N/A   Clear
11:56 AM 82.9 °F 86.5 °F 69.1 °F 63% 30.25 in 10.0 mi NE 9.2 mph - N/A   Clear
12:56 PM 82.9 °F 86.5 °F 69.1 °F 63% 30.25 in 10.0 mi ENE 8.1 mph - N/A   Clear
1:56 PM 84.9 °F 87.6 °F 66.9 °F 55% 30.24 in 10.0 mi ENE 6.9 mph - N/A   Clear
2:56 PM 84.9 °F 88.8 °F 69.1 °F 59% 30.22 in 10.0 mi ENE 6.9 mph - N/A   Clear
3:56 PM 84.9 °F 89.4 °F 70.0 °F 61% 30.21 in 10.0 mi East 8.1 mph - N/A   Clear
4:56 PM 84.9 °F 88.8 °F 69.1 °F 59% 30.20 in 10.0 mi East 9.2 mph - N/A   Clear
5:56 PM 84.0 °F 87.8 °F 69.1 °F 61% 30.20 in 10.0 mi ESE 8.1 mph - N/A   Clear
6:56 PM 81.0 °F 85.2 °F 72.0 °F 74% 30.19 in 10.0 mi SE 5.8 mph - N/A   Clear
7:56 PM 79.0 °F - 73.0 °F 82% 30.20 in 10.0 mi SE 4.6 mph - N/A   Clear
8:56 PM 80.1 °F 84.5 °F 73.9 °F 81% 30.21 in 10.0 mi ESE 3.5 mph - N/A   Clear
9:56 PM 80.1 °F 84.5 °F 73.9 °F 81% 30.22 in 10.0 mi SE 3.5 mph - N/A   Partly Cloudy
10:56 PM 80.1 °F 83.8 °F 72.0 °F 76% 30.22 in 10.0 mi SE 4.6 mph - N/A   Partly Cloudy
11:56 PM 78.1 °F - 72.0 °F 81% 30.22 in 10.0 mi Calm Calm - N/A   Clear